When you browse on this site, cookies collect data to enhance your experience and personalize the content and advertising you see.
Visit our Privacy Policy to learn more. By continuing to use the site, you agree to this use of cookies and data.
EN

Hourly Weather Zhytomyr

Today, 14 July, Tuesday

Time Temperature Precipitation Wind Pressure Humidity
00:00 +11°C° 0 mm 4 mps 743 mmHg 89%
01:00 +10°C° 0 mm 4 mps 743 mmHg 91%
02:00 +10°C° 0 mm 4 mps 743 mmHg 94%
03:00 +10°C° 0 mm 4 mps 743 mmHg 94%
04:00 +10°C° 0 mm 4 mps 743 mmHg 94%
05:00 +10°C° 0 mm 4 mps 742 mmHg 94%
06:00 +12°C° 0 mm 4 mps 742 mmHg 87%
07:00 +13°C° 0 mm 5 mps 742 mmHg 81%
08:00 +15°C° 0 mm 5 mps 742 mmHg 74%
09:00 +16°C° 0 mm 5 mps 742 mmHg 69%
10:00 +17°C° 0 mm 6 mps 742 mmHg 64%
11:00 +20°C° 0 mm 6 mps 742 mmHg 59%
12:00 +20°C° 0 mm 6 mps 742 mmHg 58%
13:00 +21°C° 0 mm 6 mps 742 mmHg 56%
14:00 +21°C° 0 mm 6 mps 741 mmHg 54%
15:00 +21°C° 0.1 mm 5 mps 741 mmHg 56%
16:00 +21°C° 0.1 mm 5 mps 741 mmHg 58%
17:00 +21°C° 0.1 mm 4 mps 741 mmHg 60%
18:00 +19°C° 0 mm 4 mps 741 mmHg 67%
19:00 +17°C° 0 mm 3 mps 741 mmHg 74%
20:00 +16°C° 0 mm 3 mps 741 mmHg 80%
21:00 +14°C° 0 mm 3 mps 741 mmHg 84%
22:00 +13°C° 0 mm 3 mps 741 mmHg 88%
23:00 +12°C° 0 mm 3 mps 742 mmHg 91%

Tomorrow, 15 July, Wednesday

Time Temperature Precipitation Wind Pressure Humidity
00:00 +12°C° 0 mm 3 mps 742 mmHg 92%
01:00 +11°C° 0 mm 3 mps 742 mmHg 94%
02:00 +11°C° 0 mm 3 mps 742 mmHg 95%
03:00 +11°C° 0 mm 3 mps 742 mmHg 95%
04:00 +11°C° 0 mm 3 mps 742 mmHg 96%
05:00 +11°C° 0 mm 3 mps 742 mmHg 96%
06:00 +13°C° 0 mm 3 mps 742 mmHg 91%
07:00 +14°C° 0 mm 4 mps 742 mmHg 85%
08:00 +17°C° 0 mm 4 mps 742 mmHg 80%
09:00 +18°C° 0 mm 4 mps 742 mmHg 74%
10:00 +20°C° 0 mm 4 mps 742 mmHg 69%
11:00 +21°C° 0 mm 4 mps 742 mmHg 63%
12:00 +21°C° 0 mm 4 mps 742 mmHg 62%
13:00 +21°C° 0 mm 4 mps 742 mmHg 60%
14:00 +22°C° 0 mm 4 mps 742 mmHg 59%
15:00 +22°C° 0 mm 4 mps 742 mmHg 60%
16:00 +22°C° 0 mm 4 mps 742 mmHg 61%
17:00 +22°C° 0 mm 4 mps 742 mmHg 62%
18:00 +20°C° 0 mm 3 mps 742 mmHg 68%
19:00 +19°C° 0 mm 3 mps 742 mmHg 74%
20:00 +17°C° 0 mm 2 mps 742 mmHg 81%
21:00 +16°C° 0 mm 2 mps 742 mmHg 82%
22:00 +15°C° 0 mm 2 mps 742 mmHg 84%
23:00 +15°C° 0 mm 2 mps 742 mmHg 86%

Day after tomorrow, 16 July, Thursday

Time Temperature Precipitation Wind Pressure Humidity
00:00 +14°C° 0 mm 2 mps 742 mmHg 87%
01:00 +14°C° 0 mm 2 mps 742 mmHg 89%
02:00 +13°C° 0 mm 2 mps 742 mmHg 90%
03:00 +13°C° 0 mm 2 mps 742 mmHg 91%
04:00 +13°C° 0 mm 2 mps 742 mmHg 91%
05:00 +13°C° 0 mm 1 mps 742 mmHg 91%
06:00 +15°C° 0 mm 1 mps 742 mmHg 85%
07:00 +18°C° 0 mm 1 mps 742 mmHg 78%
08:00 +20°C° 0 mm 1 mps 742 mmHg 72%
09:00 +22°C° 0 mm 1 mps 742 mmHg 66%
10:00 +23°C° 0 mm 1 mps 742 mmHg 61%
11:00 +25°C° 0 mm 1 mps 742 mmHg 55%
12:00 +25°C° 0 mm 1 mps 742 mmHg 53%
13:00 +25°C° 0 mm 1 mps 742 mmHg 50%
14:00 +26°C° 0 mm 2 mps 741 mmHg 48%
15:00 +26°C° 0.2 mm 2 mps 741 mmHg 52%
16:00 +25°C° 0.2 mm 2 mps 741 mmHg 55%
17:00 +25°C° 0.2 mm 2 mps 740 mmHg 59%
18:00 +23°C° 0.2 mm 2 mps 740 mmHg 66%
19:00 +21°C° 0.2 mm 2 mps 740 mmHg 73%
20:00 +19°C° 0.2 mm 2 mps 740 mmHg 81%
21:00 +18°C° 0 mm 2 mps 740 mmHg 82%
22:00 +18°C° 0 mm 2 mps 740 mmHg 83%
23:00 +17°C° 0 mm 2 mps 740 mmHg 85%

17 July, Friday

Time Temperature Precipitation Wind Pressure Humidity
00:00 +17°C° 0.1 mm 2 mps 740 mmHg 86%
01:00 +16°C° 0.1 mm 2 mps 740 mmHg 88%
02:00 +16°C° 0.1 mm 2 mps 740 mmHg 89%
03:00 +16°C° 0.3 mm 2 mps 740 mmHg 90%
04:00 +16°C° 0.3 mm 1 mps 740 mmHg 90%
05:00 +16°C° 0.3 mm 1 mps 740 mmHg 91%
06:00 +18°C° 0.1 mm 1 mps 740 mmHg 86%
07:00 +19°C° 0.1 mm 2 mps 740 mmHg 81%
08:00 +20°C° 0.1 mm 2 mps 741 mmHg 76%
09:00 +21°C° 0.3 mm 2 mps 741 mmHg 72%
10:00 +24°C° 0.3 mm 2 mps 741 mmHg 67%
11:00 +25°C° 0.3 mm 2 mps 741 mmHg 63%
12:00 +26°C° 0.3 mm 3 mps 741 mmHg 60%
13:00 +26°C° 0.3 mm 3 mps 741 mmHg 57%
14:00 +27°C° 0.3 mm 3 mps 741 mmHg 54%
15:00 +27°C° 0.3 mm 3 mps 741 mmHg 57%
16:00 +26°C° 0.3 mm 2 mps 741 mmHg 60%
17:00 +26°C° 0.3 mm 2 mps 741 mmHg 63%
18:00 +24°C° 0.2 mm 1 mps 741 mmHg 68%
19:00 +23°C° 0.2 mm 1 mps 741 mmHg 73%
20:00 +19°C° 0.2 mm 0 mps 741 mmHg 78%
21:00 +20°C° 0.1 mm 1 mps 741 mmHg 79%
22:00 +20°C° 0.1 mm 1 mps 742 mmHg 80%
23:00 +20°C° 0.1 mm 1 mps 742 mmHg 82%

18 July, Saturday

Time Temperature Precipitation Wind Pressure Humidity
00:00 +18°C° 0 mm 2 mps 742 mmHg 82%
01:00 +18°C° 0 mm 2 mps 742 mmHg 82%
02:00 +17°C° 0 mm 2 mps 742 mmHg 83%
03:00 +17°C° 0 mm 2 mps 742 mmHg 82%
04:00 +17°C° 0 mm 2 mps 742 mmHg 82%
05:00 +17°C° 0 mm 2 mps 742 mmHg 82%
06:00 +18°C° 0 mm 2 mps 742 mmHg 80%
07:00 +19°C° 0 mm 2 mps 743 mmHg 78%
08:00 +20°C° 0 mm 2 mps 743 mmHg 76%
09:00 +20°C° 0 mm 2 mps 743 mmHg 75%
10:00 +21°C° 0 mm 3 mps 743 mmHg 73%
11:00 +22°C° 0 mm 3 mps 743 mmHg 72%
12:00 +25°C° 0 mm 3 mps 743 mmHg 65%
13:00 +26°C° 0 mm 3 mps 743 mmHg 58%
14:00 +28°C° 0 mm 3 mps 743 mmHg 51%
15:00 +27°C° 0 mm 3 mps 743 mmHg 54%
16:00 +27°C° 0 mm 2 mps 743 mmHg 58%
17:00 +26°C° 0 mm 2 mps 743 mmHg 61%
18:00 +25°C° 0 mm 2 mps 743 mmHg 65%
19:00 +23°C° 0 mm 2 mps 743 mmHg 68%
20:00 +22°C° 0 mm 1 mps 743 mmHg 71%
21:00 +21°C° 0 mm 1 mps 743 mmHg 73%
22:00 +20°C° 0 mm 2 mps 743 mmHg 74%
23:00 +20°C° 0 mm 2 mps 743 mmHg 75%

19 July, Sunday

Time Temperature Precipitation Wind Pressure Humidity
00:00 +19°C° 0 mm 2 mps 743 mmHg 75%
01:00 +19°C° 0 mm 2 mps 743 mmHg 76%
02:00 +19°C° 0 mm 2 mps 743 mmHg 76%
03:00 +18°C° 0 mm 2 mps 743 mmHg 77%
04:00 +18°C° 0 mm 2 mps 743 mmHg 79%
05:00 +18°C° 0 mm 2 mps 743 mmHg 80%
06:00 +19°C° 0 mm 2 mps 743 mmHg 77%
07:00 +20°C° 0 mm 2 mps 743 mmHg 74%
08:00 +21°C° 0 mm 3 mps 743 mmHg 71%
09:00 +22°C° 0 mm 3 mps 743 mmHg 70%
10:00 +22°C° 0 mm 3 mps 743 mmHg 70%
11:00 +22°C° 0 mm 3 mps 742 mmHg 70%
12:00 +25°C° 0 mm 3 mps 742 mmHg 65%
13:00 +26°C° 0 mm 3 mps 742 mmHg 60%
14:00 +27°C° 0 mm 3 mps 742 mmHg 55%
15:00 +27°C° 0.3 mm 3 mps 741 mmHg 58%
16:00 +27°C° 0.3 mm 3 mps 741 mmHg 60%
17:00 +27°C° 0.3 mm 2 mps 741 mmHg 62%
18:00 +25°C° 0.4 mm 2 mps 740 mmHg 67%
19:00 +23°C° 0.4 mm 2 mps 740 mmHg 72%
20:00 +21°C° 0.4 mm 2 mps 740 mmHg 76%
21:00 +20°C° 0.2 mm 2 mps 740 mmHg 79%
22:00 +19°C° 0.2 mm 2 mps 740 mmHg 81%
23:00 +20°C° 0.2 mm 1 mps 740 mmHg 83%
Show more